Weather History for KGZH - October, 2013

Change the Weather History Date:

Saturday, October 19, 2013

  Actual Average (KPRN) Record (KPRN)
Temperature  
Mean Temperature 60 °F -  
Max Temperature 68 °F 76 °F 92 °F (1987)
Min Temperature 55 °F 52 °F 36 °F (1977)
Degree Days  
Heating Degree Days 4    
Growing Degree Days 10 (Base 50)    
Moisture  
Dew Point 58 °F    
Average Humidity 87    
Maximum Humidity 94    
Minimum Humidity 73    
Precipitation  
Precipitation 0.00 in - - ()
Sea Level Pressure  
Sea Level Pressure 30.00 in    
Wind  
Wind Speed 1 mph (NNW)    
Max Wind Speed 9 mph    
Max Gust Speed -    
Visibility 7 miles    
Events Rain    
Averages and records for this station are not official NWS values.
T = Trace of Precipitation, MM = Missing Value Source: NWS Daily Summary

Daily Weather History Graph

Daily Weather History Graph

Search for Another Location

Airport or City:

Trip Planner

Search our weather history database for the weather conditions in past years. The results will help you decide how hot, cold, wet, or windy it might be!

Date:

Astronomy

Oct. 19, 2013 Rise Set
Actual Time 6:54 AM CDT 6:11 PM CDT
Civil Twilight 6:29 AM CDT 6:36 PM CDT
Nautical Twilight 6:01 AM CDT 7:04 PM CDT
Astronomical Twilight 5:33 AM CDT 7:32 PM CDT
Moon 6:43 PM CDT (10/19) 7:27 AM CDT (10/19)
Length of Visible Light 12h 06m
Length of Day
11h 17m
Waxing Gibbous, 99% of the Moon is Illuminated
Oct 19
Waxing Gibbous
Oct 26
Last Quarter
Nov 3
New
Nov 9
First Quarter
Nov 17
Full

Hourly Weather History & Observations

Time (CDT) Temp. Dew Point Humidity Pressure Visibility Wind Dir Wind Speed Gust Speed Precip Events Conditions
12:53 AM 64.0 °F 59.0 °F 84% 29.99 in 10.0 mi Calm Calm - N/A   Clear
1:53 AM 63.0 °F 59.0 °F 87% 29.97 in 10.0 mi Calm Calm - N/A   Clear
2:53 AM 63.0 °F 59.0 °F 87% 29.96 in 10.0 mi Calm Calm - N/A   Scattered Clouds
3:53 AM 63.0 °F 57.9 °F 84% 29.96 in 10.0 mi Calm Calm - N/A   Mostly Cloudy
4:53 AM 62.1 °F 59.0 °F 90% 29.97 in 10.0 mi Calm Calm - 0.00 in Rain Light Rain
5:53 AM 62.1 °F 59.0 °F 90% 29.96 in 8.0 mi Calm Calm - 0.00 in Rain Light Rain
6:53 AM 62.1 °F 59.0 °F 90% 29.97 in 9.0 mi Calm Calm - 0.00 in   Overcast
7:53 AM 62.1 °F 59.0 °F 90% 30.00 in 8.0 mi Variable 5.8 mph - N/A   Overcast
8:53 AM 63.0 °F 57.9 °F 84% 30.01 in 10.0 mi NNW 6.9 mph - N/A   Overcast
9:53 AM 64.0 °F 57.0 °F 78% 30.03 in 10.0 mi NNW 4.6 mph - N/A   Overcast
10:53 AM 63.0 °F 57.9 °F 84% 30.05 in 5.0 mi Calm Calm - 0.00 in Rain Rain
11:53 AM 63.0 °F 59.0 °F 87% 30.00 in 9.0 mi Calm Calm - 0.00 in Rain Light Rain
12:20 PM 64.4 °F 60.8 °F 88% 30.00 in 10.0 mi Calm Calm - 0.00 in   Overcast
12:39 PM 64.4 °F 60.8 °F 88% 30.00 in 10.0 mi Calm Calm - 0.00 in Rain Light Rain
12:53 PM 64.9 °F 60.1 °F 84% 29.99 in 10.0 mi Calm Calm - 0.00 in Rain Light Rain
1:34 PM 66.2 °F 60.8 °F 83% 29.97 in 10.0 mi NNW 5.8 mph - 0.00 in Rain Light Rain
1:41 PM 66.2 °F 60.8 °F 83% 29.97 in 10.0 mi NNW 5.8 mph - 0.00 in   Overcast
1:53 PM 66.0 °F 61.0 °F 84% 29.97 in 10.0 mi NNW 6.9 mph - 0.00 in   Overcast
2:43 PM 66.2 °F 60.8 °F 83% 29.97 in 10.0 mi NNW 9.2 mph - 0.00 in   Scattered Clouds
2:53 PM 66.9 °F 59.0 °F 76% 29.96 in 10.0 mi North 8.1 mph - 0.00 in   Scattered Clouds
3:53 PM 66.0 °F 57.0 °F 73% 29.97 in 10.0 mi North 3.5 mph - N/A   Overcast
4:53 PM 66.0 °F 57.9 °F 75% 29.99 in 10.0 mi NNW 3.5 mph - N/A   Overcast
5:53 PM 64.9 °F 55.9 °F 73% 29.98 in 10.0 mi North 3.5 mph - N/A   Overcast
6:53 PM 63.0 °F 57.9 °F 84% 29.99 in 10.0 mi Calm Calm - N/A   Overcast
7:53 PM 62.1 °F 57.9 °F 86% 29.99 in 10.0 mi Calm Calm - N/A   Overcast
8:53 PM 60.1 °F 57.0 °F 90% 30.00 in 8.0 mi Calm Calm - N/A   Clear
9:47 PM 59.0 °F 57.2 °F 94% 30.02 in 1.8 mi Calm Calm - N/A   Clear
9:53 PM 59.0 °F 57.0 °F 93% 30.02 in 1.8 mi Calm Calm - N/A   Clear
10:00 PM 59.0 °F 57.2 °F 94% 30.02 in 2.5 mi Calm Calm - N/A   Clear
10:19 PM 59.0 °F 55.4 °F 88% 30.03 in 4.0 mi Calm Calm - N/A   Clear
10:53 PM 57.9 °F 55.9 °F 93% 30.02 in 3.0 mi Calm Calm - N/A   Clear
11:06 PM 57.2 °F 55.4 °F 94% 30.02 in 1.8 mi Calm Calm - N/A   Clear
11:14 PM 57.2 °F 55.4 °F 94% 30.02 in 0.8 mi Calm Calm - N/A   Mist
11:24 PM 57.2 °F 55.4 °F 94% 30.02 in 1.2 mi Calm Calm - N/A   Partly Cloudy
11:28 PM 57.2 °F 55.4 °F 94% 30.02 in 3.0 mi Calm Calm - N/A   Clear
11:36 PM 57.2 °F 55.4 °F 94% 30.02 in 2.0 mi Calm Calm - N/A   Clear
11:46 PM 55.4 °F 53.6 °F 94% 30.02 in 1.2 mi Calm Calm - N/A   Clear
11:53 PM 57.0 °F 54.0 °F 89% 30.01 in 1.2 mi Calm Calm - N/A   Clear